Flag for Germany Weather past 2 weeks in Schwerin, Mecklenburg-Western Pomerania, Germany

Now
65 °F

Partly sunny.


Feels Like: 65 °F
Forecast: 40 / 58 °F
Wind: 8 mph from North

Location: Schwerin

Current Time: Apr 21, 2015 at 3:42:46 PM

Latest Report: Apr 21, 2015 at 3:00 PM


Visibility: 14 mi

Pressure: 30.29 "Hg

Humidity: 31%

Dew point: 33 °F

Location of SchwerinLocation

Historic Weather in Schwerin — Graph

°F

Schwerin temperature yesterday

Maximum temperature yesterday: 58 °F (at 4:00 PM)
Minimum temperature yesterday: 40 °F (at 6:00 AM)
Average temperature yesterday: 50 °F

Past Weeks' High & Low Weather Summary

 TemperatureHumidityPressure
High69 °F (Apr 15, 4:00 PM)100% (Apr 9, 8:00 AM)30.57 "Hg (Apr 9, 8:00 AM)
Low31 °F (Apr 7, 6:00 AM)29% (Apr 15, 4:00 PM)29.81 "Hg (Apr 15, 6:00 PM)
Average48 °F69%30.22 "Hg
* Reported Apr 6 2:00 PM — Apr 21 2:00 PM, Schwerin, Weather by CustomWeather, © 2015

Note: Actual official high and low records may vary slightly from our data, if they occured in-between our weather recording intervals... More about our weather records

Advertising

Schwerin weather history for previous 24 hours

 ConditionsComfort  
Time TempWeatherWind HumidityBarometerVisibility
2:00 PM
Tue, Apr 21
64 °FPartly sunny.8 mph31%30.29 "Hg13 mi
1:00 PM63 °FScattered clouds.7 mph31%30.29 "Hg15 mi
12:00 PM62 °FSunny.7 mph32%30.30 "Hg14 mi
10:00 AM55 °FPassing clouds.6 mph45%30.31 "Hg14 mi
9:00 AM53 °FPassing clouds.5 mph49%30.31 "Hg22 mi
8:00 AM48 °FPassing clouds.6 mph65%30.31 "Hg13 mi
7:00 AM43 °FPassing clouds.5 mph77%30.31 "Hg17 mi
6:00 AM41 °FPassing clouds.3 mph79%30.32 "Hg15 mi
4:00 AM43 °FPassing clouds.3 mph75%30.33 "Hg17 mi
3:00 AM44 °FClear.3 mph73%30.33 "Hg19 mi
2:00 AM43 °FPassing clouds.3 mph78%30.34 "Hg17 mi
1:00 AM45 °FClear.2 mph71%30.34 "Hg22 mi
12:00 AM47 °FPassing clouds.3 mph67%30.34 "Hg25 mi
10:00 PM
Mon, Apr 20
50 °FPassing clouds.2 mph57%30.34 "Hg28 mi
9:00 PM52 °FPassing clouds.2 mph53%30.34 "Hg31 mi
8:00 PM55 °FScattered clouds.3 mph54%30.33 "Hg25 mi
7:00 PM56 °FScattered clouds.3 mph49%30.33 "Hg19 mi
6:00 PM57 °FPassing clouds.5 mph48%30.33 "Hg22 mi
4:00 PM58 °FPassing clouds.7 mph46%30.32 "Hg16 mi
3:00 PM58 °FSunny.6 mph40%30.33 "Hg19 mi
Weather by CustomWeather, © 2015

See weather overviewHow to use our weather pages